ATLAS 5 CENTAUR DEB, 44039

Orbit data source: Space-Track

ATLAS 5 CENTAUR DEB, 44039 is space debris in HEO originally from a launch on Wed, 17 Sep 2014 UTC launched from the Air Force Eastern Test Range (AFETR). Debris objects in space refer to the collection of defunct objects orbiting the Earth. Examples of debris include non-operational satellites, rocket bodies, and fragments generated from explosions, collisions, or faulty payload assembly.

Loading next visibility...
Identifier
44039, 2014-055BZ
Orbit
HEO
Country
Flag of USUS
Related business
Flag of USUnited Launch Alliance/Lockheed Martin (US)
Manufacturer
Unknown
Mission
Spacecraft
Bus & Motor
Unknown
Mass
Unknown
Launch date (UTC)
2014-09-17 (12 years ago)
Launch vehicle
Unknown
Launch site
Air Force Eastern Test Range (AFETR)
Object type
Payload
Rocket body
Debris
Shape & HBR
Unknown shape, 1.1 m
Radar Cross Section
Medium (>0.1 m² and <1 m²)

Expand to show TLE details & history
Last TLE update: 3 months ago

TLE from 3 months ago
0 ATLAS 5 CENTAUR DEB
1 44039U 14055BZ  26176.23122353 -.00000092  00000-0  00000-0 0  9990
2 44039  20.5989 126.1677 4814098 198.3104 135.5523  1.89431158 52635
Epoch: 2026-06-25T05:32Z
TLE epoch observation values (Epoch: 2026-06-25T05:32:57.712Z)
Latitude
-0.00001°
Longitude
129.49721°
Altitude
32,668.789 km
Speed
2.443 km/s
True Right ascension
08h 24m 27s
True Declination
0° 00' 00"
Sunlit
Object was in daylight at epoch
Visualization orbit readout
Latitude
Unknown
Longitude
Unknown
Altitude
Unknown
Speed
Unknown
Apparent Right ascension
Unknown
Apparent Declination
Unknown
Sunlit
N/A
Visualization observer readout
Local Sidereal Time
03:51:32
Azimuth
Unknown
Elevation
Unknown
Doppler factor
Unknown
Orbital elements
Apogee altitude
34,498.337 km
Perigee altitude
7,931.299 km
Semi-major axis
27,592.955 km
Eccentricity
0.48141
Inclination
20.5989°
RAAN
126.1677°
Arg. of periapsis
198.3104°
True anomaly
161.69616°
Mean anomaly
135.5523°
Eccentric anomaly
149.53647°
Mean motion
0.47353 °/min
Orbital period
760.25 mins
BSTAR
0
Loading maneuver chart data...
Computing Atmospheric mass density...

Documentation

Showing up to 5 results
|